Wind_Speed
23 24 25 26 27 28 28 28 27 27 26 25 23 21 20 18 17 16 15 13 12 11 10 9 7 6 4 3 2 1 1 3 5 9 9 7 8 11 13 13 14 19 23 23 21 21 21 20 20 21 20 19 16 16 13 9 6 5 6 10 13 13 11 11 9 9 10 9 8 9 10 9 6 4 4 7 8 9 9 6 6 8 6 4 4 4 4 5
19 22 24 26 27 28 29 29 29 29 28 27 26 24 23 21 20 18 17 16 15 13 13 11 10 8 6 4 3 2 1 2 4 7 7 6 9 12 14 15 15 19 23 23 22 22 22 21 22 21 19 16 15 14 13 10 8 6 9 13 15 14 13 13 10 9 10 8 9 11 11 8 5 5 6 8 8 8 8 5 6 7 7 5 3 4 4 5
14 17 21 24 26 28 28 29 30 30 30 30 29 27 26 24 22 21 19 18 17 16 14 13 12 10 9 6 4 4 3 2 4 6 7 10 13 14 15 17 18 19 23 23 22 22 21 22 22 20 17 14 13 12 11 9 9 8 10 13 14 15 16 14 11 10 9 7 8 10 9 7 6 8 8 7 7 6 6 6 6 7 7 6 4 3 4 4
12 13 15 19 23 26 28 29 30 31 31 31 31 30 29 27 25 23 22 20 19 18 16 15 14 13 12 9 7 6 5 3 3 5 7 10 13 14 15 18 19 20 23 22 21 22 21 22 22 20 17 14 12 11 9 7 8 9 10 11 13 16 17 15 13 9 7 7 8 10 11 9 9 8 6 5 5 6 6 7 7 7 7 7 5 3 3 4
13 13 13 15 17 21 25 28 30 31 31 32 32 32 31 30 28 26 24 23 21 20 19 17 16 15 14 12 10 8 7 5 4 4 6 8 11 13 15 17 20 20 21 22 22 22 22 23 23 20 16 13 11 8 7 7 7 8 8 10 12 15 16 16 12 6 5 7 8 10 13 12 10 8 5 6 6 6 7 8 8 8 7 6 4 3 3 4
15 15 14 14 15 16 19 24 27 30 31 32 33 33 33 32 31 29 27 25 23 22 21 19 18 17 16 15 13 11 9 7 6 5 5 6 9 12 15 17 19 18 19 20 22 23 22 23 22 19 16 12 10 8 8 8 8 7 7 9 12 13 14 14 9 5 6 7 7 10 13 12 10 7 6 7 7 7 8 8 8 7 7 6 4 3 2 4
17 16 16 16 16 16 16 18 22 26 30 32 33 34 34 34 33 32 30 28 26 24 23 21 20 19 18 17 15 14 11 8 7 6 5 6 8 11 14 17 17 17 17 18 22 24 22 21 20 18 16 14 12 11 9 8 6 5 7 7 10 11 11 9 5 5 6 6 6 8 11 12 10 9 8 8 8 9 9 8 8 8 7 6 5 3 3 3
18 17 18 18 18 17 17 17 18 21 25 30 32 34 34 35 35 35 34 32 29 27 25 23 22 21 20 19 18 17 13 10 9 8 5 5 7 10 14 16 16 17 17 18 23 24 23 22 22 20 19 17 15 14 12 9 7 3 7 7 7 7 8 6 6 5 4 5 5 7 10 11 11 11 9 9 9 10 9 8 9 8 7 6 5 4 3 3
19 19 18 18 19 19 19 18 18 18 20 24 29 33 34 35 36 36 36 35 32 30 28 26 24 23 22 22 21 19 15 13 12 9 6 5 7 11 14 17 17 19 20 20 24 25 24 25 23 21 20 18 17 17 17 15 11 6 6 4 3 5 7 8 8 3 3 4 4 6 8 9 10 11 9 9 9 10 9 9 9 8 7 6 5 5 4 4
21 20 20 20 19 19 20 20 20 19 19 20 23 29 33 35 36 36 37 37 36 34 31 29 27 25 24 23 23 21 18 16 13 10 8 6 8 12 15 19 20 21 23 23 24 25 25 26 24 22 21 19 18 19 20 17 12 8 8 4 2 4 6 8 7 3 5 4 4 6 6 7 8 9 8 8 8 9 9 8 8 8 7 6 6 5 4 4
21 21 21 21 21 21 20 21 21 21 21 20 21 23 28 33 36 37 38 38 37 36 34 32 30 28 26 25 25 23 20 19 16 13 10 8 9 13 16 20 22 23 24 25 26 27 27 28 26 24 23 22 22 20 19 15 10 8 9 5 3 4 5 6 6 5 5 2 4 5 4 4 6 6 7 7 7 7 8 8 8 7 7 7 6 5 5 4
20 20 20 21 21 22 21 21 22 22 22 22 22 22 23 28 33 37 38 38 39 38 37 35 33 31 28 28 28 25 22 21 18 15 14 11 11 14 16 19 23 24 26 29 30 30 30 30 29 26 25 25 25 22 19 16 13 10 7 3 4 7 7 3 4 5 4 2 1 2 2 3 4 4 3 5 5 5 5 6 7 7 7 7 6 6 5 4
20 20 20 20 20 21 21 22 22 23 23 24 24 24 23 23 27 33 37 39 39 39 39 37 36 34 31 30 29 26 24 24 22 19 18 15 13 15 18 20 22 25 28 31 33 34 33 32 31 29 27 27 26 23 20 16 14 11 7 3 8 10 8 4 4 5 6 5 2 3 3 4 3 2 0 2 3 2 3 4 6 6 6 6 6 6 5 5
20 21 21 21 21 21 21 22 22 24 25 25 26 25 24 24 24 27 32 37 39 39 38 38 38 37 34 33 31 28 26 26 26 24 21 18 16 17 20 22 23 26 28 30 33 35 33 31 31 30 28 28 26 24 21 17 14 10 8 8 11 12 10 6 5 7 9 7 4 3 3 4 3 1 1 2 2 2 3 4 4 4 6 6 5 5 5 5
20 21 22 22 22 22 22 22 22 24 25 26 27 26 25 25 25 25 26 31 37 39 38 38 40 39 37 36 33 30 29 31 30 27 24 21 19 19 22 25 27 28 28 29 31 32 31 30 31 30 30 28 27 26 23 20 17 14 12 12 12 11 10 6 6 10 11 8 5 3 2 4 2 2 2 3 3 3 4 4 4 3 4 6 5 4 4 4
21 21 22 22 23 23 23 23 23 25 26 27 28 28 26 25 26 26 25 25 29 34 37 37 39 39 39 39 37 33 34 35 33 29 27 25 22 22 25 27 29 30 30 30 31 30 30 30 31 31 31 29 27 26 23 20 18 16 14 13 11 9 8 6 8 11 12 10 5 3 2 1 1 1 1 3 3 3 5 5 5 4 3 4 5 4 4 3
22 22 22 22 23 23 23 23 24 26 28 29 28 29 28 26 26 27 26 24 24 29 36 38 38 39 39 41 40 37 37 37 35 32 31 28 26 25 26 28 30 31 31 31 30 30 30 30 31 32 30 28 28 26 21 20 18 15 16 13 10 9 7 6 9 10 10 9 6 4 1 2 1 2 2 4 4 3 5 5 4 4 5 4 3 3 4 3
24 24 24 23 23 23 23 22 23 26 29 31 30 30 29 28 27 28 27 25 25 26 32 38 40 39 40 42 41 40 38 37 36 34 32 31 29 27 28 30 31 32 33 31 30 29 30 30 32 32 29 28 28 24 19 19 17 12 11 8 5 5 5 5 7 8 8 9 8 5 3 4 3 4 4 5 6 5 5 4 3 3 4 4 3 2 3 3
27 26 26 25 25 24 23 22 22 24 28 31 31 31 31 30 29 29 27 27 28 27 28 34 39 40 40 41 42 42 41 39 37 35 33 32 31 30 30 31 32 33 34 31 29 29 29 31 31 29 26 26 26 21 17 18 14 11 9 6 4 3 4 6 8 7 8 9 9 6 6 8 8 6 5 5 6 7 7 5 3 2 3 3 3 3 2 2
28 28 28 27 27 27 25 23 22 23 26 29 31 31 32 32 32 31 28 27 30 30 29 30 35 41 42 42 43 45 43 41 38 36 36 35 34 33 33 33 33 33 32 31 30 29 29 31 30 26 23 25 24 19 18 20 17 17 15 12 7 5 6 6 8 7 7 6 6 5 8 7 10 9 8 7 6 7 8 7 4 3 2 2 3 4 3 2
30 30 29 29 29 29 28 26 24 24 25 27 29 30 31 32 34 33 30 28 31 32 30 29 31 36 43 45 45 45 44 43 41 38 38 38 37 36 35 35 34 32 30 31 32 31 30 30 27 25 25 26 23 20 21 22 21 21 18 15 10 5 7 6 6 6 5 3 3 3 6 4 7 10 9 10 9 8 8 8 7 5 4 2 3 4 4 3
32 32 31 31 31 31 30 28 27 26 26 26 27 28 30 31 33 34 32 28 30 34 31 29 30 30 39 47 47 47 47 44 42 41 40 40 40 39 37 37 35 32 30 32 34 32 29 27 25 28 30 29 25 22 23 24 24 24 20 17 14 8 6 5 4 3 2 1 3 2 2 3 3 8 9 10 11 10 8 8 7 7 6 6 5 5 5 4
33 33 33 32 32 32 31 30 29 28 28 28 28 28 29 31 31 33 35 30 27 33 33 30 30 27 32 43 46 47 46 43 44 44 43 42 41 40 39 38 36 33 33 33 32 29 25 23 27 33 35 33 28 24 24 26 28 27 22 19 16 11 8 4 1 5 5 5 5 4 2 2 2 6 8 9 11 11 9 8 7 7 8 9 8 8 7 6
34 34 34 33 33 33 32 31 31 30 29 29 29 29 29 30 31 30 34 33 25 28 35 33 30 25 26 36 45 47 44 43 45 45 44 42 41 42 41 39 37 35 35 34 32 28 23 23 32 38 38 35 31 26 26 29 31 29 24 21 17 15 12 5 7 12 13 12 9 7 7 4 5 7 7 9 11 11 11 9 9 9 9 10 10 11 9 7
34 35 34 34 34 34 34 33 32 32 31 30 30 30 29 30 31 29 31 34 27 24 33 35 29 24 26 36 44 46 43 43 46 46 46 43 41 42 42 41 40 38 37 35 33 29 24 28 36 40 39 37 33 29 29 31 32 30 26 22 19 17 14 10 14 17 20 18 11 10 12 10 9 9 7 8 11 13 13 8 7 8 9 10 12 13 12 9
34 35 35 35 34 34 35 34 33 33 32 32 31 30 31 30 31 31 29 32 29 26 30 33 30 25 27 34 37 40 42 42 44 46 47 45 42 41 42 43 42 40 39 37 36 31 27 31 38 40 39 38 34 32 32 33 33 31 26 23 21 19 17 16 18 22 24 20 15 17 18 18 15 10 8 10 11 14 12 4 5 5 6 9 11 12 13 12
34 35 35 35 35 34 35 35 34 33 32 33 32 31 31 31 31 31 30 31 27 26 29 31 30 25 27 33 34 37 41 39 40 45 47 46 44 43 44 45 44 42 41 41 40 34 30 33 39 40 40 39 36 34 35 35 33 31 26 23 22 20 17 15 17 22 22 19 22 23 20 20 18 11 11 13 13 12 6 2 4 3 3 6 8 10 10 11
35 35 35 35 35 34 34 35 35 34 33 33 33 33 32 31 32 31 31 30 23 21 27 28 27 24 26 33 33 34 37 35 37 42 43 44 45 45 45 45 45 44 43 44 41 34 31 34 37 40 41 40 36 33 36 37 34 29 25 25 24 19 15 14 17 19 19 22 28 27 22 22 19 13 14 17 14 9 1 3 1 1 3 6 7 8 9 9
36 35 35 35 36 35 34 35 36 35 33 33 34 34 33 32 32 31 32 30 21 18 24 24 24 24 26 31 31 31 35 36 36 39 41 44 46 46 45 44 45 46 45 45 42 36 35 35 37 41 43 41 36 33 37 39 34 27 28 30 27 21 18 18 20 22 24 29 32 30 26 25 21 16 19 19 12 5 3 2 3 5 6 8 8 8 8 9
37 37 36 35 36 35 34 35 36 35 33 34 34 34 34 33 32 32 32 27 19 18 22 22 24 24 25 29 29 28 33 35 36 38 42 45 45 45 44 44 46 48 48 48 45 40 38 39 40 43 45 41 37 36 38 39 32 28 32 33 29 25 22 21 23 24 29 34 33 29 26 25 24 22 22 19 10 7 6 3 6 8 9 10 10 7 6 6
38 38 38 37 36 35 35 36 37 35 34 35 35 34 35 33 33 34 29 23 19 18 19 21 24 25 27 29 27 25 28 32 35 38 41 44 47 47 46 47 50 51 52 52 49 44 43 44 44 45 46 42 40 40 40 38 33 32 36 34 30 29 27 27 27 28 33 35 30 27 25 27 30 28 24 20 14 12 13 8 9 11 9 11 12 6 4 6
39 39 39 38 37 35 36 39 37 35 35 36 36 35 35 35 35 31 24 21 20 17 16 18 21 24 29 30 28 25 24 27 31 36 40 43 47 48 48 48 50 52 54 54 51 47 46 46 44 45 46 44 43 43 42 40 37 36 38 37 35 34 32 32 32 33 37 34 27 25 25 30 34 28 24 23 18 14 14 12 11 11 8 10 12 7 5 9
40 40 40 39 38 37 39 41 39 36 35 36 37 35 35 37 33 25 21 20 18 14 14 17 19 23 28 30 28 26 25 25 27 31 36 39 42 45 46 46 47 49 51 52 50 48 47 47 46 47 48 46 45 45 44 43 40 38 40 41 40 38 36 35 35 35 36 33 28 26 28 35 37 28 24 25 20 15 15 14 10 8 8 10 14 9 8 11
41 41 41 40 40 39 41 41 40 37 35 35 37 37 37 37 30 23 22 20 16 15 16 19 21 24 27 27 27 28 26 24 24 26 30 34 38 42 44 46 48 49 49 51 51 49 48 49 48 48 49 48 46 45 43 42 40 39 41 43 42 41 38 36 36 36 35 31 29 30 34 39 35 25 23 24 22 19 19 17 12 11 10 12 15 11 9 11
42 42 42 42 42 42 41 41 40 38 36 35 38 39 38 34 27 23 23 20 18 19 21 23 25 27 29 28 27 28 26 22 19 20 24 29 34 37 41 44 47 49 50 52 52 50 50 49 47 47 48 47 46 44 41 42 43 41 43 45 45 43 41 38 35 33 32 32 32 33 36 37 30 25 25 24 20 20 22 21 17 17 16 17 16 11 9 9
43 44 43 43 43 42 41 41 40 40 38 37 39 40 37 31 27 25 24 21 21 22 23 27 29 29 31 31 28 28 27 24 20 18 20 24 28 31 35 39 43 46 49 51 51 50 50 48 45 45 47 46 46 44 42 45 46 44 45 47 46 44 42 40 36 32 31 32 35 33 31 30 29 29 29 24 23 26 26 21 19 19 20 21 17 11 10 10
44 45 45 44 43 42 42 42 41 41 40 39 40 39 35 32 27 25 26 24 24 24 26 30 32 33 34 34 32 29 27 25 22 21 20 21 24 28 30 34 39 42 45 47 48 48 48 46 44 45 46 44 43 43 45 46 47 46 46 47 47 47 45 42 37 35 36 36 37 36 31 29 30 29 25 21 23 28 26 20 18 20 21 21 16 12 12 12
45 45 46 45 44 43 43 43 42 41 41 42 40 38 36 32 27 26 27 26 26 27 29 32 36 37 36 36 35 32 30 28 25 24 23 21 22 24 25 27 33 38 42 44 46 47 47 46 45 45 45 43 42 43 46 48 49 48 46 45 47 49 47 44 40 39 40 41 41 40 38 36 36 33 28 25 27 28 26 20 18 18 19 18 15 13 14 13
45 46 46 46 45 44 43 44 44 43 43 43 40 36 35 31 27 28 28 27 29 30 31 34 38 40 39 38 37 35 34 33 29 27 27 24 22 20 19 21 25 32 38 42 44 45 45 45 45 44 44 43 44 46 47 49 49 49 47 45 45 46 44 43 43 42 43 44 44 46 46 44 41 38 34 33 34 31 25 20 18 18 18 15 13 14 16 16
45 46 47 47 46 45 44 45 45 45 44 42 39 36 34 31 29 29 29 29 32 34 34 35 39 42 41 39 39 37 35 34 32 30 29 27 24 20 17 17 21 25 31 38 43 43 43 45 44 43 44 45 47 48 46 46 47 47 48 47 44 44 44 42 43 46 47 46 47 48 48 42 36 34 30 30 31 28 22 19 18 18 17 14 14 17 19 18
46 46 47 47 47 46 45 45 45 45 44 42 39 37 35 34 31 30 30 32 35 36 36 36 39 43 43 40 39 39 37 36 33 32 31 28 27 26 20 15 17 20 25 33 41 43 44 46 44 42 45 47 47 48 45 44 45 45 47 48 44 43 44 44 45 49 49 48 47 44 41 36 31 30 27 25 24 21 19 18 18 19 19 17 17 19 20 18
46 47 47 47 47 47 46 45 45 45 44 42 39 38 37 36 34 32 32 35 37 38 37 37 39 44 44 41 39 39 40 39 36 35 33 31 30 28 23 19 18 19 22 27 34 38 41 44 43 42 45 45 45 47 46 43 43 45 45 46 45 43 43 45 48 50 48 47 44 41 40 38 33 29 28 25 21 19 18 20 20 22 23 22 21 22 21 18
46 47 48 47 47 47 47 46 45 44 43 41 40 40 40 39 37 34 34 36 38 39 38 37 39 44 46 43 41 40 42 43 42 38 34 33 32 27 25 26 25 22 23 24 26 29 33 39 43 42 42 44 44 46 47 43 41 43 43 41 42 42 42 43 45 46 45 43 40 39 40 39 33 29 28 25 22 20 20 22 23 22 23 24 24 23 20 18
46 47 48 48 47 47 47 45 44 44 43 43 43 43 42 40 37 35 35 37 39 40 39 38 39 43 47 47 46 44 43 45 45 40 37 37 34 29 27 28 28 26 25 25 24 25 29 36 41 42 43 46 48 49 48 45 42 42 41 38 37 37 39 41 42 41 43 43 40 39 39 35 29 25 24 23 21 20 21 22 22 21 21 22 23 21 19 19
46 46 48 49 47 47 47 46 45 45 45 44 44 42 41 40 37 35 36 37 39 41 40 38 39 44 48 50 51 48 45 45 45 42 43 41 34 30 29 28 29 28 25 23 23 24 26 31 37 42 46 49 51 51 49 45 42 41 40 37 34 33 37 41 42 41 41 42 40 38 36 33 27 23 23 23 21 21 22 22 21 18 17 18 18 18 19 20
46 46 47 49 49 48 48 47 45 45 45 44 43 41 41 40 38 37 37 38 39 41 40 39 39 44 50 53 54 52 47 43 43 44 46 42 33 28 28 29 30 30 29 28 28 27 27 27 31 38 45 48 47 46 44 42 42 41 39 37 35 33 36 42 44 42 38 36 37 36 34 32 29 25 23 23 23 24 24 23 22 19 17 17 17 19 20 21
47 46 46 48 50 49 48 48 46 45 45 44 43 42 42 41 39 38 39 39 39 40 40 39 40 43 50 56 57 55 48 42 42 46 47 42 35 31 26 26 29 31 33 34 33 33 32 30 28 30 39 45 43 40 40 42 42 40 37 37 36 35 38 43 45 41 36 35 36 35 34 33 32 28 25 25 26 26 25 25 23 20 19 19 20 21 21 22
47 46 45 47 50 50 49 48 47 45 45 45 44 43 42 42 40 39 40 39 39 40 41 41 42 45 50 57 61 59 52 43 42 46 49 45 40 35 29 26 28 31 35 38 38 38 37 34 29 26 32 41 43 42 42 42 41 38 37 36 36 37 40 44 43 39 36 36 34 33 35 35 33 31 29 29 28 27 26 25 23 21 22 22 22 22 23 23
47 46 46 46 48 49 50 49 47 45 44 44 45 44 43 42 41 41 41 39 38 41 43 43 45 47 50 56 63 63 56 48 43 43 49 49 43 39 34 30 28 29 34 39 41 41 40 37 32 28 28 36 45 46 43 41 39 38 37 36 35 36 38 40 41 38 37 37 36 35 37 36 35 34 31 29 28 27 26 26 25 24 24 23 23 23 24 25
48 47 46 46 46 48 50 50 48 45 43 43 44 44 43 43 43 43 42 39 39 42 45 46 46 48 49 53 61 65 61 55 48 41 44 47 43 40 38 34 29 29 33 36 39 42 41 37 34 32 30 33 43 47 43 39 38 38 37 35 34 34 35 37 40 40 39 39 38 40 41 40 38 36 34 32 31 29 30 30 29 28 26 25 25 25 26 27
48 48 47 46 46 46 48 50 49 46 43 43 44 43 43 43 44 45 42 40 41 44 47 47 47 48 50 52 57 63 64 62 55 43 39 43 44 44 42 37 31 29 32 36 39 40 41 38 35 35 34 34 42 48 44 38 37 38 38 35 33 34 35 37 40 41 41 40 38 40 43 42 40 39 38 37 35 34 34 35 34 31 28 26 27 28 29 29
49 48 47 47 46 45 45 47 49 48 44 43 43 43 43 44 45 45 43 42 44 45 46 48 48 48 50 51 54 60 63 64 60 47 40 42 45 47 46 42 36 32 32 37 41 40 41 41 37 35 35 35 41 46 42 36 35 37 38 37 36 36 37 38 40 42 42 40 37 37 40 41 41 42 41 38 37 35 36 36 33 29 25 26 28 29 30 31
Wind_Direction
258 256 255 253 252 252 251 251 250 250 251 251 250 249 249 249 249 248 249 247 241 235 231 227 229 240 244 252 260 262 227 211 200 195 195 195 187 177 177 184 179 171 169 169 167 161 156 150 146 144 139 136 131 124 117 110 107 93 71 52 45 45 41 36 35 48 60 62 58 58 65 72 87 99 89 84 76 70 63 37 35 56 59 65 99 132 150 153
261 258 256 255 253 252 251 250 250 250 249 250 250 249 248 247 247 247 246 246 244 238 233 227 224 230 237 242 246 255 261 201 196 203 196 178 183 184 182 184 184 175 171 171 168 165 162 156 151 148 144 141 134 126 121 120 118 99 77 58 45 39 33 28 25 40 49 49 48 52 67 84 92 84 71 64 60 67 73 55 32 46 59 60 88 124 144 151
270 264 259 257 255 253 252 250 249 249 249 249 248 248 246 246 245 245 244 244 244 241 236 230 224 225 231 234 234 239 246 203 187 202 192 179 186 191 187 185 186 181 176 177 173 172 168 160 156 152 146 144 138 131 130 129 122 110 88 68 49 32 20 12 13 35 42 37 41 50 71 84 77 70 58 42 41 56 69 63 44 40 50 54 68 107 130 140
281 274 267 261 257 255 253 252 250 249 248 248 248 247 246 244 243 243 243 243 243 242 239 233 226 224 227 229 228 229 236 225 190 199 197 188 189 190 187 187 191 189 184 182 178 177 171 162 159 154 151 152 148 144 150 150 128 112 92 75 54 29 13 2 5 28 44 39 44 59 76 79 72 69 54 35 44 57 62 69 64 47 46 51 57 79 103 123
280 279 276 271 265 259 255 253 251 250 248 247 247 247 247 245 242 241 241 241 241 241 240 236 230 226 226 226 225 227 229 226 205 204 210 204 197 189 185 188 196 197 190 184 180 179 173 166 163 161 163 163 160 163 185 182 137 107 86 72 53 31 12 1 359 8 32 31 39 63 80 84 84 81 63 52 58 63 65 73 73 60 54 55 54 57 76 108
278 277 277 276 273 268 262 257 253 251 249 248 246 246 246 246 244 241 239 238 239 239 239 238 233 228 227 225 224 226 228 224 213 214 217 212 202 192 185 188 198 203 196 184 180 182 179 172 167 166 168 164 165 175 196 191 156 122 92 64 52 40 12 359 1 4 14 18 31 64 84 90 92 89 70 60 63 69 69 72 74 68 65 63 62 60 71 104
279 277 276 275 274 273 270 265 258 254 250 248 247 246 245 244 244 243 240 237 236 237 238 237 235 231 228 226 225 227 228 223 214 218 223 211 200 194 187 186 195 203 201 184 179 184 182 173 166 166 171 170 174 185 199 200 183 144 105 65 52 40 6 353 357 354 355 7 32 63 78 79 80 77 68 68 70 71 67 68 74 72 72 71 71 75 81 105
281 279 277 275 274 273 272 270 267 261 255 250 248 247 245 244 243 242 241 238 235 234 235 236 235 233 230 227 226 228 227 221 217 218 222 212 198 193 188 185 188 197 203 187 179 184 181 172 167 169 178 183 187 198 207 211 223 178 112 78 52 22 358 3 353 336 328 348 34 59 62 61 65 64 61 65 65 65 62 63 70 74 80 79 78 82 87 100
280 280 279 278 276 274 272 271 269 267 263 257 251 248 246 245 243 241 241 240 237 233 232 233 234 233 232 229 228 228 226 222 222 221 219 211 198 194 190 184 181 190 199 191 182 183 179 176 176 177 182 186 192 205 215 215 222 199 127 90 40 357 355 12 359 322 282 325 32 50 54 59 59 57 54 57 58 58 58 58 63 70 81 82 80 85 95 103
278 278 278 278 278 276 275 272 270 268 267 265 258 252 247 245 244 242 240 238 237 235 231 231 231 231 231 230 229 227 226 224 222 220 218 212 199 197 193 186 182 187 194 194 186 181 180 182 184 185 182 183 189 204 219 216 221 208 153 135 328 346 354 3 352 266 253 318 22 26 44 65 63 62 55 55 60 58 55 56 61 66 76 79 79 87 97 103
278 277 277 277 277 277 276 275 274 270 267 266 264 259 252 247 244 243 242 239 237 236 233 230 229 230 230 230 230 226 225 226 222 217 216 212 202 201 198 191 188 188 191 193 188 182 183 186 188 190 184 185 191 205 220 211 216 215 159 148 291 318 327 341 329 265 249 318 6 7 31 59 62 65 58 59 63 64 61 58 62 65 71 73 75 84 93 102
279 278 278 278 277 277 277 276 276 274 271 267 264 263 259 253 247 244 243 241 238 235 234 232 229 228 228 229 230 226 223 225 222 215 213 212 205 203 203 199 194 191 190 191 189 186 188 191 193 195 189 192 199 207 215 205 199 195 156 153 277 296 297 293 294 262 240 263 341 38 63 63 53 44 50 62 56 68 79 69 67 67 70 71 74 85 92 99
281 280 280 279 279 278 277 277 276 275 273 270 266 262 261 259 254 248 244 242 240 237 234 232 230 228 228 228 229 226 221 224 224 216 212 212 206 202 203 205 202 197 196 194 191 191 194 197 198 198 195 198 203 203 207 207 200 185 160 217 264 280 283 271 271 242 225 227 178 132 106 80 58 22 27 104 59 64 104 91 75 65 67 69 72 83 95 105
278 279 281 280 280 279 278 278 276 276 274 272 269 265 262 261 260 255 249 244 242 240 236 233 231 228 228 229 227 224 220 221 223 217 213 212 209 203 199 205 208 205 205 203 199 198 200 200 200 200 198 198 201 200 201 202 199 182 174 222 252 270 277 275 250 211 211 208 163 149 116 87 81 71 111 140 106 80 109 110 84 62 59 60 61 73 91 113
275 276 278 279 280 281 280 279 277 276 274 273 271 268 265 263 261 261 257 250 245 243 240 236 233 229 228 228 226 223 220 220 221 218 215 213 211 206 198 201 208 209 210 209 207 206 203 202 200 198 197 199 201 200 200 202 198 183 184 219 243 263 270 256 212 192 193 183 152 155 125 94 108 114 97 118 122 93 90 94 83 60 50 49 45 46 72 107
275 275 276 277 278 280 281 281 280 277 275 274 273 271 268 266 264 262 260 258 252 246 242 239 236 232 228 228 225 221 220 222 221 216 216 213 209 208 202 202 207 211 214 213 212 210 205 202 198 197 200 203 202 202 205 210 206 184 183 215 238 251 252 228 204 191 179 165 152 170 171 93 103 107 75 93 104 94 82 84 79 64 52 46 38 26 36 84
278 276 276 276 276 277 279 281 281 280 277 275 273 272 270 268 267 264 260 259 258 250 243 238 236 234 231 228 226 223 222 224 222 216 214 212 209 209 207 205 208 212 215 217 215 211 207 203 200 201 204 203 202 206 212 217 218 192 178 200 227 240 241 227 210 191 168 150 136 143 136 4 5 352 13 43 40 44 58 70 76 67 62 44 27 24 21 46
280 279 278 277 277 277 277 279 281 281 279 277 275 274 272 269 266 264 262 259 257 252 245 238 234 233 233 230 227 225 223 225 225 220 216 213 210 210 210 208 209 212 216 218 217 213 210 207 204 204 206 204 206 216 223 228 227 197 167 183 217 229 228 215 194 178 160 131 103 100 75 30 3 335 350 19 16 10 16 34 43 55 72 52 18 24 19 26
279 279 279 279 278 278 277 278 280 280 280 279 277 275 273 270 266 263 262 260 256 253 249 241 235 231 231 231 229 225 223 224 226 224 219 216 212 210 212 212 211 214 217 219 219 215 213 210 209 210 210 209 213 223 231 231 218 178 167 188 181 150 166 185 180 166 148 116 78 85 105 62 35 4 355 7 4 357 349 353 6 12 57 59 16 7 1 16
278 278 279 279 279 279 278 278 279 280 281 281 280 277 273 270 267 263 260 260 257 253 252 247 238 232 229 229 228 226 222 221 223 223 220 217 214 212 212 215 215 216 218 220 220 218 215 214 216 217 213 212 218 224 226 221 198 172 176 189 178 122 124 162 174 164 145 114 62 90 128 84 50 41 27 10 345 334 330 332 339 338 357 23 353 343 337 349
277 277 278 278 278 279 279 279 279 279 280 283 283 281 277 271 266 263 259 259 259 253 251 252 245 236 232 229 228 226 223 219 219 221 220 218 216 214 214 217 220 220 219 219 219 218 215 216 218 216 210 212 219 223 222 217 195 173 171 184 188 137 111 137 154 149 139 116 42 79 147 128 57 49 33 17 355 327 309 310 317 310 310 330 323 317 311 314
274 275 276 277 278 278 278 279 279 280 280 282 283 284 282 276 269 264 258 257 260 256 249 250 250 242 235 232 228 226 224 219 217 218 219 218 218 217 217 219 222 222 220 219 221 220 218 216 214 210 208 213 219 220 221 217 197 176 170 183 186 159 143 149 140 138 128 33 347 358 174 181 56 41 27 11 1 344 313 299 304 298 297 304 299 295 288 281
273 273 274 275 276 277 278 278 279 279 280 282 284 285 285 282 276 268 259 252 256 259 253 246 247 247 242 237 232 229 225 220 217 217 219 219 218 219 219 221 220 219 221 222 224 225 222 215 207 206 208 214 220 218 219 216 200 185 177 179 174 168 167 143 18 302 303 297 285 299 294 230 356 20 21 2 353 347 328 304 299 295 296 299 292 290 282 264
272 272 272 273 274 275 276 277 277 278 279 281 284 285 286 286 283 276 265 253 246 257 258 249 244 247 246 239 233 230 226 221 219 217 218 218 218 220 221 221 219 218 221 223 225 227 224 211 203 206 210 215 219 216 216 214 204 195 186 178 175 174 165 166 270 279 282 275 264 278 287 285 324 337 354 351 340 335 327 307 293 291 292 293 289 290 286 267
272 271 271 271 272 274 275 276 276 277 278 279 282 284 286 289 287 284 275 260 245 247 257 254 247 244 245 242 235 229 225 222 220 218 217 216 217 221 222 221 219 218 220 222 224 224 219 209 206 210 213 215 218 214 213 214 208 205 196 184 183 176 167 199 248 264 268 265 262 274 281 286 298 307 324 331 320 321 326 309 281 283 289 291 287 285 282 271
271 271 270 270 271 272 274 275 275 275 277 278 280 282 284 288 288 287 282 269 255 246 252 255 252 245 244 247 241 231 226 223 220 219 218 216 214 218 223 223 221 219 218 220 223 220 214 210 209 212 214 215 217 211 209 213 211 210 202 191 190 186 181 201 232 252 258 261 269 273 276 278 279 287 305 304 304 316 326 301 236 265 291 294 289 282 277 270
271 270 270 270 270 270 272 274 274 274 276 277 278 280 282 285 287 289 286 277 267 255 251 254 255 247 241 244 241 232 226 223 221 219 218 218 215 214 220 224 222 219 217 219 222 218 212 211 210 212 215 216 216 209 206 212 214 211 204 199 200 198 194 204 227 247 257 265 271 269 267 267 267 274 290 289 294 311 330 165 193 217 279 297 296 287 274 266
272 270 269 269 268 268 270 272 273 274 275 276 277 277 280 282 284 288 287 283 279 263 253 255 256 248 238 240 240 232 225 220 220 220 218 220 219 215 216 221 222 219 217 220 222 217 213 214 212 211 216 219 218 210 205 211 216 212 210 214 211 200 194 206 228 245 257 262 262 263 261 262 263 265 277 282 286 296 292 148 204 264 292 307 307 299 284 271
272 271 269 268 267 267 268 269 270 272 274 274 275 276 277 279 282 286 285 285 288 267 253 256 255 246 236 237 237 230 222 217 216 216 215 217 220 218 216 218 221 219 217 221 223 217 214 216 213 211 217 220 218 211 207 213 217 212 216 221 213 200 196 207 225 238 249 254 256 260 260 260 261 260 268 274 271 254 204 185 332 309 300 307 306 311 304 284
273 271 269 267 267 266 266 267 267 269 271 271 272 273 274 276 279 282 284 290 294 271 256 254 251 245 236 233 232 225 220 217 215 214 214 215 218 218 216 216 219 219 217 219 219 215 213 217 214 212 216 218 215 212 209 214 216 211 216 218 209 205 205 212 225 234 244 248 249 254 255 258 261 256 259 266 253 217 221 268 336 317 302 302 301 315 328 310
272 271 270 268 266 266 266 264 264 266 268 268 269 270 272 274 275 277 287 299 292 271 260 257 251 245 237 229 224 219 217 217 217 215 214 215 217 216 214 214 216 216 216 216 215 212 211 214 213 211 214 214 213 211 209 214 214 210 214 212 206 210 211 216 224 229 236 240 242 248 250 252 255 253 257 268 263 233 231 262 317 319 305 293 292 304 335 331
271 270 270 268 266 265 263 262 262 262 263 265 267 268 270 271 271 279 294 296 281 267 257 255 250 243 240 233 218 207 208 213 217 219 217 216 218 218 215 215 216 217 219 218 215 211 210 212 212 211 212 211 211 210 208 211 212 210 211 207 206 213 214 217 224 228 235 237 238 246 251 252 254 256 259 267 266 247 249 275 309 317 304 282 282 292 323 321
269 269 268 267 266 263 261 261 260 259 260 263 265 266 267 268 271 284 291 280 271 265 251 245 241 235 236 235 220 200 196 203 211 219 220 219 221 221 218 216 217 219 222 223 220 214 211 212 211 210 210 210 211 210 207 208 210 209 208 205 207 213 215 220 226 232 239 241 241 246 251 251 252 255 258 264 272 274 284 300 310 305 296 272 271 286 321 319
268 267 267 266 264 262 260 260 261 260 259 261 264 264 264 266 274 283 281 271 261 253 241 231 230 228 227 227 219 203 194 196 205 217 222 222 222 222 220 216 216 217 219 222 221 218 215 213 211 210 211 210 211 210 207 208 210 209 207 206 211 214 215 222 229 235 241 245 247 247 247 248 253 260 266 272 278 280 287 298 290 277 282 272 270 289 317 310
266 265 265 264 263 262 260 260 261 261 259 259 261 261 262 267 274 275 272 264 247 239 232 224 220 219 217 215 209 201 191 184 197 216 226 225 222 222 222 219 217 216 217 219 220 218 217 216 214 213 213 211 211 211 206 207 211 210 207 210 216 217 216 221 231 238 243 248 250 250 250 254 260 265 268 271 273 275 284 289 275 266 274 275 275 292 307 298
265 264 263 262 262 262 260 259 259 259 258 257 257 259 263 267 268 267 266 257 242 234 230 225 219 213 212 209 201 197 189 180 186 208 223 227 224 224 224 222 220 219 219 220 221 220 218 217 215 215 215 212 212 210 204 206 209 207 207 213 217 218 218 221 229 236 241 246 249 250 254 260 263 262 264 267 269 272 280 279 264 258 266 272 274 283 288 289
263 262 262 261 260 260 259 258 256 256 256 255 255 258 261 263 263 262 261 253 240 232 226 223 219 213 210 207 200 196 192 185 188 201 213 223 223 221 223 223 222 221 220 221 223 223 221 218 215 217 217 213 213 211 205 205 207 206 210 216 216 217 220 221 226 235 238 239 242 245 248 254 258 260 262 264 267 270 273 269 257 253 257 261 266 273 276 280
262 261 260 259 258 258 258 256 255 254 254 253 254 255 257 260 262 259 256 248 237 230 225 221 218 214 211 206 201 198 195 193 197 199 204 219 222 215 220 225 224 223 221 220 222 223 222 219 215 216 218 214 211 212 208 206 207 210 217 220 217 218 221 219 221 230 234 234 236 239 241 244 248 252 254 254 257 262 264 261 255 250 251 255 262 269 270 274
260 259 259 258 257 256 255 255 254 252 251 252 254 254 255 257 257 253 251 245 236 230 225 221 218 216 213 208 203 201 199 200 204 201 198 209 214 209 216 225 225 226 224 221 220 220 222 220 215 214 216 213 210 211 211 209 209 211 216 217 215 217 220 221 223 226 229 231 233 235 237 239 243 248 252 251 252 257 259 258 253 250 252 255 260 265 268 275
258 258 257 257 255 254 253 253 253 252 251 252 253 253 252 251 250 249 247 242 236 230 226 223 219 216 214 211 207 205 203 203 207 208 201 200 202 202 209 220 223 225 228 225 221 218 219 220 216 212 213 211 210 211 212 210 210 211 212 212 213 215 219 223 228 228 227 230 232 234 238 242 245 248 249 248 250 255 257 258 256 255 255 253 252 260 268 276
257 256 256 255 254 253 253 252 252 252 251 251 251 250 248 247 246 245 243 239 235 231 228 225 220 216 213 212 210 208 208 207 210 215 210 203 203 201 196 207 219 220 225 228 223 217 216 218 215 210 211 212 211 213 212 209 210 213 213 214 213 215 219 223 228 229 228 230 234 237 244 251 250 246 246 249 254 256 259 263 265 264 262 258 258 263 270 276
256 255 254 253 253 252 251 251 250 250 250 249 249 247 245 243 242 241 240 238 235 231 228 225 222 217 212 210 210 211 213 213 213 218 216 211 211 203 192 200 212 215 221 226 225 220 218 219 215 208 210 214 212 212 213 209 208 213 216 217 216 216 220 224 228 230 231 233 236 242 251 255 251 246 248 251 252 255 262 267 268 268 266 261 261 264 269 276
254 254 252 251 251 251 250 250 249 249 248 248 247 245 243 240 239 239 238 238 236 232 228 225 223 219 212 210 210 210 214 215 215 218 218 216 214 204 198 203 206 210 218 220 219 217 217 220 218 210 209 212 212 211 212 210 209 213 216 218 219 219 222 224 227 232 236 237 239 246 253 257 256 254 249 243 243 251 260 264 266 268 267 263 261 263 270 280
252 253 252 250 249 249 249 248 248 247 245 245 244 243 242 240 238 237 236 236 236 233 228 224 224 221 213 212 211 206 207 210 211 213 216 216 213 206 203 203 201 204 212 215 214 212 215 218 218 211 207 208 208 208 209 209 208 210 211 214 220 224 226 226 226 230 234 234 236 242 249 254 256 253 244 240 247 256 259 261 262 264 263 260 260 264 274 285
252 252 251 249 247 248 248 246 246 245 243 243 243 243 243 241 237 236 236 236 234 232 229 223 224 222 214 214 214 206 202 204 205 209 213 212 208 205 204 204 200 198 204 212 216 218 221 222 219 215 208 206 207 208 209 208 207 206 207 209 217 225 226 224 223 226 231 233 234 236 241 247 249 245 241 242 248 251 252 258 264 267 265 262 265 274 282 286
251 251 251 249 246 246 246 245 244 243 242 241 241 241 241 239 235 233 235 235 232 231 229 224 226 225 217 216 215 207 203 203 202 206 212 209 200 196 202 206 202 197 199 207 214 218 224 227 226 222 215 211 212 212 211 209 208 209 209 209 213 220 221 219 220 225 233 238 238 235 237 245 248 245 243 243 246 248 253 262 269 271 268 268 273 280 283 284
249 249 249 249 246 244 244 244 242 241 240 239 238 237 237 235 233 231 233 234 229 227 226 224 227 228 221 219 218 211 205 202 201 206 211 208 196 189 194 204 206 205 206 210 215 218 222 225 226 225 221 215 212 211 209 209 209 212 213 213 212 215 216 217 222 229 235 238 238 235 237 246 249 248 246 247 251 256 260 266 270 269 267 270 274 276 279 283
248 247 246 247 246 244 243 243 242 240 239 237 235 234 234 232 230 229 231 232 228 224 223 224 227 229 224 223 222 216 209 203 201 205 210 208 196 187 188 197 205 212 215 216 220 222 223 223 221 224 223 215 209 208 207 207 209 211 215 216 214 214 215 218 224 233 237 239 240 238 241 248 251 251 252 255 258 262 265 268 272 273 272 272 273 274 278 284
247 245 244 244 244 244 243 241 241 240 238 236 235 233 232 231 228 226 227 229 227 222 221 222 226 229 227 224 223 220 213 207 204 203 205 203 193 184 187 194 200 210 218 222 224 224 225 223 217 220 223 215 210 208 205 206 209 213 215 215 213 216 219 222 228 234 238 242 245 244 245 249 249 249 253 258 259 260 264 267 270 274 275 274 274 277 281 287
245 244 242 241 241 242 242 241 239 237 236 235 233 232 231 229 227 225 224 224 224 222 221 221 224 229 230 227 226 224 218 213 212 205 199 196 187 182 189 195 197 206 216 223 225 224 224 221 217 218 222 217 210 207 205 207 212 213 213 212 212 217 221 225 230 233 237 241 245 246 246 247 246 247 250 253 254 258 262 264 267 274 276 274 275 280 283 287
243 242 241 240 239 239 240 240 239 236 233 233 232 230 228 227 226 225 223 221 221 222 222 221 222 228 230 229 230 229 223 218 217 211 199 192 187 185 190 193 195 203 212 220 226 226 222 219 217 218 220 216 208 205 206 208 211 213 211 209 212 217 220 225 229 230 233 238 242 243 243 243 244 246 248 250 253 259 262 262 266 275 277 275 276 279 280 283
242 240 239 238 237 236 236 237 238 237 233 230 230 228 225 225 225 223 221 220 219 220 222 222 222 226 230 229 231 232 229 223 219 215 206 198 192 189 192 193 193 198 206 215 224 227 224 221 217 217 219 212 204 203 204 205 211 216 213 209 212 219 222 224 228 230 232 235 238 240 240 240 241 243 244 248 253 259 262 264 268 275 277 274 274 274 275 278
Height
5895 5895 5895 5895 5896 5896 5897 5897 5898 5898 5898 5899 5899 5900 5901 5901 5902 5902 5902 5903 5903 5903 5903 5904 5904 5904 5904 5904 5904 5904 5904 5904 5904 5905 5905 5905 5906 5907 5908 5908 5909 5909 5909 5911 5912 5913 5913 5914 5914 5915 5915 5915 5915 5914 5915 5916 5916 5917 5917 5917 5917 5917 5916 5915 5915 5916 5916 5916 5916 5916 5915 5915 5915 5916 5916 5915 5914 5914 5914 5915 5914 5914 5914 5913 5913 5913 5914 5914
5893 5893 5893 5893 5893 5894 5894 5895 5895 5896 5896 5897 5897 5898 5899 5900 5900 5901 5901 5901 5902 5902 5902 5903 5903 5903 5903 5903 5903 5904 5904 5904 5904 5904 5905 5905 5906 5906 5907 5908 5909 5909 5910 5911 5912 5912 5913 5914 5914 5915 5915 5916 5916 5915 5916 5916 5917 5917 5917 5917 5917 5917 5916 5916 5917 5917 5916 5915 5916 5916 5917 5917 5916 5916 5916 5915 5915 5915 5915 5916 5915 5915 5915 5914 5914 5914 5915 5915
5891 5891 5890 5890 5891 5891 5891 5892 5893 5893 5894 5894 5895 5896 5897 5898 5898 5899 5900 5900 5900 5901 5901 5902 5902 5902 5902 5902 5903 5903 5903 5903 5903 5903 5904 5904 5905 5906 5906 5907 5908 5909 5910 5910 5911 5911 5912 5914 5915 5915 5916 5917 5916 5916 5917 5917 5917 5917 5917 5917 5917 5917 5917 5916 5917 5917 5916 5915 5916 5917 5918 5917 5916 5915 5915 5915 5915 5916 5916 5916 5916 5915 5915 5915 5915 5915 5915 5916
5889 5889 5889 5888 5888 5888 5889 5889 5890 5890 5891 5892 5892 5893 5894 5895 5896 5897 5898 5899 5899 5899 5900 5900 5901 5901 5901 5902 5902 5902 5902 5902 5903 5903 5903 5904 5904 5905 5906 5906 5907 5908 5909 5910 5911 5911 5912 5914 5915 5916 5916 5916 5917 5917 5917 5918 5918 5917 5916 5916 5917 5917 5917 5917 5917 5917 5916 5916 5916 5917 5918 5916 5915 5914 5914 5915 5916 5916 5916 5916 5916 5916 5915 5916 5916 5916 5916 5916
5888 5887 5887 5886 5886 5886 5886 5886 5887 5887 5888 5889 5890 5891 5891 5892 5893 5895 5896 5897 5897 5898 5898 5899 5900 5900 5900 5901 5901 5901 5901 5901 5902 5902 5902 5903 5903 5904 5905 5906 5906 5907 5908 5910 5911 5911 5912 5914 5914 5915 5916 5916 5916 5916 5917 5918 5917 5917 5916 5916 5916 5916 5917 5918 5918 5917 5917 5916 5916 5917 5918 5916 5915 5915 5915 5916 5916 5916 5917 5917 5916 5916 5916 5916 5917 5917 5917 5917
5886 5886 5885 5885 5884 5884 5884 5884 5884 5884 5885 5886 5886 5887 5888 5889 5891 5892 5893 5894 5895 5896 5897 5897 5898 5898 5899 5900 5900 5900 5900 5900 5901 5901 5901 5902 5903 5904 5905 5905 5906 5906 5907 5909 5910 5911 5912 5913 5914 5915 5916 5916 5916 5916 5916 5917 5917 5916 5916 5915 5915 5916 5918 5919 5919 5918 5917 5916 5917 5918 5918 5917 5916 5916 5916 5916 5916 5916 5916 5917 5917 5917 5917 5917 5917 5918 5918 5918
5884 5884 5884 5883 5883 5882 5882 5881 5881 5881 5882 5883 5883 5884 5885 5886 5888 5889 5890 5891 5893 5894 5895 5896 5896 5897 5897 5898 5899 5899 5899 5900 5900 5901 5901 5901 5902 5903 5904 5905 5905 5906 5907 5910 5911 5911 5912 5913 5915 5915 5915 5915 5915 5915 5916 5916 5917 5915 5915 5915 5914 5916 5919 5920 5919 5918 5917 5917 5917 5918 5918 5917 5916 5916 5916 5916 5917 5916 5916 5917 5917 5917 5917 5917 5917 5918 5918 5918
5883 5882 5882 5881 5881 5880 5880 5880 5879 5879 5879 5879 5880 5881 5882 5883 5884 5885 5887 5888 5890 5891 5892 5893 5894 5895 5896 5896 5897 5898 5899 5899 5899 5900 5900 5901 5901 5902 5903 5904 5905 5906 5907 5909 5911 5911 5912 5913 5914 5914 5914 5915 5915 5915 5916 5916 5917 5916 5914 5914 5914 5917 5920 5920 5919 5918 5918 5918 5918 5917 5916 5916 5916 5916 5916 5917 5917 5916 5916 5917 5917 5917 5917 5917 5917 5918 5918 5918
5880 5880 5880 5879 5879 5878 5878 5878 5877 5877 5877 5877 5877 5878 5879 5880 5881 5882 5883 5885 5887 5888 5890 5891 5892 5893 5894 5895 5895 5896 5898 5898 5899 5899 5899 5900 5901 5901 5902 5903 5904 5905 5906 5908 5909 5910 5911 5912 5913 5914 5914 5915 5915 5915 5915 5916 5916 5915 5913 5913 5915 5917 5919 5919 5919 5919 5918 5918 5918 5918 5917 5916 5916 5916 5916 5916 5916 5916 5916 5917 5917 5918 5918 5918 5917 5918 5918 5918
5878 5878 5877 5877 5877 5876 5876 5876 5875 5875 5875 5874 5874 5874 5875 5876 5877 5878 5880 5881 5883 5885 5887 5888 5889 5891 5892 5892 5893 5895 5896 5897 5898 5898 5898 5899 5900 5900 5901 5902 5902 5903 5905 5906 5908 5909 5910 5911 5912 5913 5913 5914 5914 5914 5914 5914 5915 5913 5912 5913 5915 5917 5918 5918 5919 5919 5919 5919 5918 5917 5917 5917 5917 5917 5917 5917 5917 5916 5917 5917 5918 5918 5918 5918 5918 5918 5918 5918
5876 5875 5875 5875 5874 5874 5874 5874 5873 5873 5873 5872 5872 5872 5872 5873 5874 5875 5876 5878 5879 5881 5883 5885 5886 5888 5889 5890 5891 5892 5894 5895 5896 5897 5897 5898 5899 5899 5900 5901 5901 5902 5903 5905 5907 5908 5909 5910 5910 5911 5912 5912 5912 5912 5912 5912 5913 5912 5911 5912 5915 5916 5917 5918 5920 5920 5920 5919 5918 5918 5917 5917 5917 5917 5918 5918 5917 5917 5917 5918 5918 5918 5918 5918 5918 5918 5918 5918
5873 5873 5872 5872 5872 5872 5871 5871 5871 5870 5870 5870 5869 5869 5870 5870 5871 5871 5873 5874 5876 5878 5880 5882 5884 5885 5886 5888 5888 5890 5893 5894 5895 5896 5896 5896 5897 5898 5899 5900 5900 5900 5901 5902 5905 5906 5907 5908 5908 5909 5910 5910 5911 5912 5912 5911 5910 5910 5910 5912 5913 5915 5916 5918 5919 5920 5921 5920 5919 5919 5918 5917 5917 5918 5918 5918 5918 5918 5918 5918 5918 5919 5919 5918 5918 5918 5918 5918
5871 5871 5870 5870 5869 5869 5869 5868 5868 5868 5867 5867 5867 5867 5867 5868 5868 5868 5869 5871 5872 5874 5876 5878 5880 5882 5884 5884 5885 5888 5891 5891 5893 5894 5894 5895 5895 5896 5898 5899 5899 5899 5898 5899 5900 5902 5903 5905 5906 5907 5908 5909 5910 5911 5910 5910 5910 5909 5909 5911 5912 5914 5916 5918 5919 5920 5921 5920 5920 5919 5919 5918 5918 5918 5919 5919 5919 5919 5919 5919 5919 5919 5919 5919 5918 5918 5918 5918
5869 5868 5868 5867 5867 5867 5866 5866 5865 5864 5864 5864 5864 5864 5865 5865 5865 5866 5867 5868 5869 5871 5873 5875 5877 5879 5880 5881 5883 5886 5888 5888 5889 5890 5892 5893 5894 5894 5896 5897 5898 5897 5897 5897 5897 5898 5900 5902 5904 5905 5907 5908 5909 5909 5909 5910 5910 5909 5908 5910 5912 5914 5916 5917 5918 5920 5921 5920 5919 5919 5919 5919 5919 5920 5920 5920 5920 5920 5919 5919 5919 5919 5919 5919 5919 5919 5919 5918
5867 5866 5866 5865 5865 5864 5864 5863 5863 5861 5861 5861 5861 5862 5863 5863 5863 5863 5864 5865 5867 5868 5871 5872 5873 5875 5877 5877 5880 5883 5884 5884 5885 5887 5890 5891 5892 5892 5893 5894 5896 5896 5896 5896 5896 5897 5899 5900 5902 5904 5905 5906 5907 5908 5908 5908 5908 5906 5907 5909 5912 5914 5915 5917 5919 5920 5921 5920 5919 5919 5919 5920 5920 5921 5921 5920 5920 5920 5920 5919 5919 5920 5920 5920 5920 5920 5920 5919
5864 5864 5863 5863 5862 5861 5861 5861 5860 5858 5858 5858 5858 5858 5860 5861 5860 5861 5861 5863 5863 5864 5867 5868 5870 5872 5873 5874 5876 5879 5879 5878 5881 5885 5886 5888 5889 5889 5890 5891 5892 5893 5894 5894 5894 5895 5897 5899 5901 5902 5902 5904 5905 5906 5906 5906 5906 5905 5906 5909 5912 5914 5916 5917 5919 5921 5921 5920 5919 5919 5920 5921 5921 5922 5922 5921 5921 5921 5920 5920 5919 5920 5920 5920 5920 5920 5920 5920
5861 5861 5860 5860 5859 5859 5859 5858 5857 5855 5854 5854 5855 5855 5857 5858 5857 5857 5858 5859 5860 5860 5861 5863 5865 5868 5869 5870 5872 5874 5875 5875 5878 5881 5882 5884 5886 5886 5888 5888 5889 5891 5891 5892 5892 5894 5896 5898 5899 5900 5900 5902 5903 5903 5903 5904 5905 5905 5906 5909 5912 5914 5916 5918 5919 5921 5922 5920 5919 5920 5921 5922 5922 5923 5922 5922 5921 5921 5920 5920 5920 5920 5920 5921 5921 5921 5921 5921
5858 5858 5857 5857 5856 5856 5856 5856 5855 5853 5851 5851 5851 5852 5853 5854 5854 5854 5855 5856 5856 5855 5856 5858 5860 5863 5865 5866 5869 5871 5872 5874 5876 5878 5880 5881 5882 5884 5885 5885 5886 5887 5888 5889 5890 5892 5894 5896 5897 5898 5899 5900 5900 5902 5903 5904 5906 5906 5907 5910 5913 5914 5916 5917 5919 5920 5921 5920 5919 5920 5921 5922 5922 5922 5921 5921 5921 5920 5920 5920 5921 5921 5921 5921 5922 5922 5922 5922
5855 5855 5854 5853 5853 5852 5853 5853 5852 5850 5848 5847 5848 5849 5849 5849 5850 5851 5852 5852 5852 5851 5852 5853 5855 5857 5859 5862 5864 5866 5868 5871 5873 5877 5878 5879 5880 5881 5881 5881 5882 5883 5885 5886 5888 5890 5892 5893 5894 5894 5896 5898 5899 5902 5903 5905 5907 5907 5908 5910 5912 5914 5915 5916 5917 5919 5920 5919 5919 5920 5921 5922 5922 5921 5920 5920 5920 5919 5919 5920 5921 5921 5921 5921 5922 5922 5922 5923
5852 5852 5851 5850 5849 5849 5849 5849 5849 5847 5846 5844 5844 5845 5845 5846 5846 5847 5848 5848 5847 5848 5849 5849 5850 5852 5854 5856 5857 5860 5864 5867 5870 5873 5875 5876 5877 5877 5877 5878 5878 5880 5882 5885 5887 5888 5890 5891 5891 5893 5897 5899 5901 5902 5903 5905 5907 5906 5906 5909 5911 5912 5913 5914 5916 5917 5918 5919 5919 5920 5921 5921 5921 5921 5920 5919 5919 5919 5919 5919 5920 5921 5921 5921 5921 5922 5922 5922
5849 5849 5848 5847 5846 5845 5845 5845 5845 5844 5843 5842 5841 5840 5841 5842 5842 5842 5844 5844 5843 5843 5846 5846 5847 5849 5849 5850 5852 5855 5859 5863 5865 5868 5871 5873 5873 5874 5874 5874 5875 5877 5880 5883 5884 5885 5887 5888 5890 5894 5898 5899 5901 5902 5903 5904 5905 5905 5906 5907 5908 5910 5912 5913 5914 5915 5917 5917 5918 5919 5920 5920 5920 5920 5919 5919 5919 5919 5919 5919 5919 5920 5920 5920 5921 5921 5921 5921
5846 5845 5845 5844 5843 5842 5841 5842 5841 5841 5840 5839 5837 5836 5836 5837 5837 5838 5841 5842 5839 5838 5842 5843 5843 5845 5845 5845 5848 5850 5853 5859 5862 5863 5866 5869 5870 5872 5872 5872 5873 5876 5879 5880 5880 5882 5884 5887 5891 5895 5896 5897 5899 5900 5901 5903 5904 5904 5904 5906 5906 5908 5910 5911 5912 5913 5914 5915 5916 5917 5918 5918 5919 5919 5919 5919 5919 5918 5918 5918 5918 5919 5919 5919 5920 5920 5920 5920
5841 5841 5841 5841 5840 5839 5838 5838 5837 5837 5836 5835 5834 5833 5832 5832 5833 5834 5835 5839 5838 5833 5836 5839 5840 5842 5841 5841 5844 5846 5850 5856 5858 5859 5861 5865 5868 5870 5871 5870 5872 5874 5876 5876 5878 5880 5883 5887 5892 5893 5893 5894 5896 5898 5899 5901 5902 5902 5903 5904 5906 5906 5907 5909 5910 5911 5912 5913 5914 5915 5916 5917 5917 5918 5918 5918 5918 5918 5918 5918 5918 5918 5918 5918 5919 5919 5919 5919
5837 5837 5837 5837 5836 5835 5835 5835 5834 5833 5833 5832 5831 5829 5829 5828 5828 5830 5830 5833 5837 5832 5829 5833 5837 5839 5837 5836 5838 5842 5847 5851 5853 5855 5857 5861 5865 5867 5868 5869 5870 5871 5872 5874 5877 5880 5883 5888 5890 5890 5890 5892 5894 5895 5897 5899 5900 5900 5901 5903 5905 5905 5906 5908 5909 5909 5910 5910 5912 5913 5914 5915 5915 5916 5917 5918 5918 5918 5918 5918 5917 5917 5917 5917 5917 5918 5918 5918
5833 5833 5833 5832 5832 5831 5831 5831 5830 5830 5830 5829 5828 5826 5826 5825 5823 5825 5825 5827 5833 5831 5826 5828 5832 5834 5833 5830 5832 5837 5843 5845 5848 5852 5853 5857 5861 5863 5866 5867 5867 5869 5870 5873 5875 5877 5882 5886 5887 5886 5887 5889 5891 5893 5895 5897 5899 5899 5900 5902 5904 5904 5905 5906 5907 5907 5907 5908 5910 5911 5911 5912 5914 5915 5916 5917 5917 5918 5918 5917 5917 5916 5916 5916 5916 5916 5917 5918
5829 5829 5828 5828 5828 5828 5827 5827 5826 5826 5826 5825 5825 5824 5822 5822 5819 5820 5821 5822 5827 5828 5825 5825 5827 5829 5829 5827 5830 5834 5838 5841 5844 5847 5849 5853 5856 5859 5862 5863 5865 5867 5868 5870 5871 5874 5879 5883 5883 5883 5885 5886 5888 5890 5893 5895 5897 5898 5900 5902 5903 5904 5904 5904 5905 5905 5905 5906 5908 5909 5909 5910 5911 5913 5915 5916 5916 5917 5917 5916 5916 5915 5915 5915 5915 5915 5916 5916
5825 5824 5824 5824 5824 5824 5823 5822 5822 5823 5823 5822 5822 5821 5820 5819 5816 5816 5816 5817 5821 5824 5823 5822 5822 5825 5825 5823 5825 5828 5833 5838 5840 5841 5846 5849 5851 5854 5857 5860 5862 5864 5866 5866 5866 5871 5876 5879 5880 5881 5882 5883 5884 5887 5890 5893 5895 5897 5900 5902 5902 5903 5903 5903 5904 5904 5904 5905 5905 5906 5907 5908 5909 5912 5914 5914 5915 5916 5916 5916 5915 5915 5915 5914 5914 5914 5914 5915
5820 5820 5820 5819 5819 5820 5819 5818 5818 5818 5819 5819 5818 5818 5817 5816 5814 5813 5812 5813 5818 5819 5818 5818 5819 5821 5821 5818 5821 5824 5829 5834 5835 5838 5843 5845 5846 5849 5852 5856 5860 5862 5863 5862 5863 5869 5874 5875 5877 5879 5879 5880 5882 5887 5890 5891 5893 5897 5901 5901 5901 5902 5902 5902 5903 5903 5903 5903 5901 5902 5905 5906 5907 5910 5912 5912 5914 5915 5916 5915 5915 5914 5914 5914 5913 5913 5913 5913
5816 5815 5815 5815 5815 5815 5816 5815 5814 5814 5815 5815 5814 5814 5814 5813 5812 5810 5809 5810 5814 5815 5814 5815 5814 5815 5815 5815 5817 5820 5824 5828 5830 5833 5836 5837 5840 5844 5847 5852 5857 5858 5859 5859 5862 5867 5870 5872 5875 5877 5877 5878 5883 5887 5888 5888 5892 5898 5899 5898 5899 5900 5899 5900 5900 5901 5901 5899 5897 5900 5903 5903 5904 5908 5910 5911 5912 5914 5915 5914 5914 5914 5913 5913 5913 5912 5912 5911
5811 5811 5810 5811 5810 5811 5812 5811 5809 5810 5810 5810 5810 5810 5810 5810 5809 5807 5806 5808 5810 5810 5810 5810 5810 5810 5811 5812 5814 5816 5820 5823 5825 5827 5829 5831 5834 5838 5843 5847 5850 5852 5853 5854 5858 5863 5866 5868 5871 5872 5873 5877 5882 5885 5886 5887 5891 5896 5895 5895 5897 5897 5897 5897 5897 5898 5897 5893 5894 5898 5901 5902 5901 5903 5907 5909 5911 5912 5913 5912 5912 5912 5912 5912 5911 5911 5911 5910
5806 5805 5806 5806 5806 5806 5807 5805 5804 5806 5805 5804 5805 5806 5806 5806 5805 5803 5804 5806 5807 5807 5807 5806 5806 5807 5807 5807 5810 5814 5817 5820 5821 5823 5825 5827 5828 5831 5835 5838 5841 5844 5846 5847 5851 5857 5860 5861 5864 5867 5870 5875 5879 5881 5883 5886 5889 5891 5891 5893 5894 5893 5894 5894 5893 5894 5891 5890 5894 5898 5899 5899 5896 5898 5904 5907 5909 5910 5910 5911 5911 5911 5911 5910 5910 5910 5910 5909
5801 5800 5800 5801 5801 5802 5801 5799 5799 5801 5801 5799 5800 5801 5802 5801 5801 5802 5804 5804 5803 5803 5803 5803 5803 5804 5804 5805 5807 5809 5813 5816 5818 5820 5821 5823 5824 5826 5830 5833 5836 5839 5841 5843 5848 5852 5855 5857 5860 5863 5867 5872 5874 5876 5879 5882 5884 5886 5887 5889 5890 5889 5890 5889 5889 5889 5887 5889 5894 5897 5897 5894 5890 5896 5903 5904 5906 5908 5908 5909 5910 5909 5909 5909 5909 5909 5909 5908
5795 5795 5795 5795 5796 5797 5795 5793 5794 5796 5797 5796 5795 5797 5797 5796 5797 5801 5802 5801 5799 5800 5801 5801 5801 5802 5803 5804 5805 5805 5807 5811 5814 5815 5817 5820 5821 5823 5827 5830 5833 5837 5840 5844 5847 5849 5852 5853 5856 5859 5862 5866 5868 5870 5874 5876 5879 5881 5883 5885 5885 5885 5886 5885 5886 5886 5886 5889 5893 5895 5893 5887 5887 5894 5899 5901 5903 5905 5906 5907 5907 5907 5908 5908 5907 5907 5908 5907
5789 5789 5789 5789 5790 5790 5789 5788 5789 5791 5793 5792 5791 5792 5792 5791 5795 5799 5799 5797 5798 5798 5798 5798 5799 5800 5801 5802 5803 5802 5803 5805 5809 5811 5812 5815 5817 5819 5822 5825 5828 5832 5836 5839 5841 5845 5847 5848 5851 5854 5857 5861 5863 5866 5871 5875 5877 5879 5881 5883 5882 5882 5883 5883 5883 5884 5885 5888 5890 5891 5887 5882 5886 5893 5896 5898 5900 5901 5902 5904 5905 5906 5906 5906 5906 5906 5907 5906
5783 5783 5783 5783 5783 5784 5785 5785 5785 5786 5788 5788 5787 5786 5786 5789 5793 5795 5794 5794 5794 5794 5794 5794 5795 5797 5798 5799 5800 5800 5799 5801 5804 5807 5808 5810 5813 5815 5818 5821 5824 5827 5829 5831 5835 5840 5842 5845 5851 5853 5855 5859 5861 5864 5869 5873 5874 5876 5879 5879 5878 5880 5882 5882 5882 5883 5884 5885 5885 5884 5882 5881 5887 5891 5893 5896 5897 5897 5899 5901 5902 5903 5904 5904 5905 5905 5906 5905
5777 5776 5777 5777 5777 5778 5780 5780 5779 5780 5781 5782 5781 5780 5782 5786 5789 5790 5789 5790 5790 5790 5791 5792 5792 5794 5795 5796 5798 5798 5797 5798 5800 5802 5804 5807 5809 5812 5815 5818 5821 5824 5826 5828 5832 5836 5839 5844 5850 5851 5852 5856 5859 5862 5867 5868 5869 5872 5873 5873 5875 5879 5881 5881 5881 5881 5882 5881 5880 5880 5880 5881 5884 5887 5889 5892 5894 5894 5896 5898 5900 5901 5901 5902 5903 5904 5904 5903
5770 5770 5770 5771 5772 5772 5773 5774 5774 5774 5775 5775 5775 5776 5779 5782 5784 5785 5785 5785 5786 5786 5787 5787 5789 5790 5792 5793 5795 5795 5796 5796 5796 5797 5800 5803 5805 5808 5811 5815 5818 5820 5823 5826 5829 5833 5837 5841 5846 5847 5849 5854 5857 5861 5863 5864 5866 5869 5869 5871 5875 5878 5878 5877 5878 5878 5878 5878 5877 5877 5879 5880 5881 5883 5887 5890 5892 5893 5894 5896 5897 5898 5899 5900 5901 5902 5902 5902
5763 5763 5763 5764 5765 5766 5766 5766 5767 5768 5768 5768 5769 5772 5775 5777 5780 5780 5780 5781 5781 5782 5782 5783 5784 5786 5787 5790 5792 5792 5793 5794 5793 5793 5796 5798 5801 5805 5809 5811 5814 5816 5819 5822 5825 5828 5832 5837 5841 5843 5846 5851 5855 5857 5858 5859 5862 5865 5867 5871 5873 5873 5873 5873 5873 5873 5874 5875 5875 5876 5878 5878 5879 5881 5885 5888 5890 5891 5892 5894 5895 5896 5897 5898 5899 5900 5900 5900
5756 5756 5756 5757 5759 5760 5759 5759 5760 5761 5761 5762 5765 5768 5771 5773 5775 5774 5775 5776 5776 5776 5777 5778 5780 5781 5784 5786 5788 5789 5789 5790 5790 5790 5791 5793 5796 5802 5806 5809 5811 5814 5816 5818 5820 5824 5828 5831 5835 5839 5842 5846 5848 5849 5851 5854 5857 5860 5863 5866 5867 5868 5869 5870 5871 5871 5871 5872 5872 5874 5874 5876 5878 5881 5884 5887 5888 5890 5891 5891 5892 5893 5894 5896 5897 5897 5897 5898
5748 5749 5749 5750 5752 5752 5752 5753 5753 5754 5756 5757 5761 5763 5765 5767 5768 5769 5770 5771 5770 5771 5772 5773 5775 5777 5780 5783 5784 5786 5787 5787 5788 5789 5789 5789 5791 5796 5802 5806 5809 5811 5813 5814 5816 5820 5823 5825 5831 5835 5837 5839 5841 5842 5847 5852 5854 5856 5858 5859 5862 5864 5865 5867 5868 5868 5868 5869 5870 5871 5871 5874 5878 5881 5883 5885 5887 5888 5888 5889 5890 5891 5892 5893 5894 5895 5895 5895
5740 5741 5741 5743 5744 5745 5746 5746 5747 5749 5750 5753 5755 5757 5759 5761 5763 5764 5765 5764 5765 5766 5767 5769 5771 5774 5776 5779 5781 5783 5783 5784 5786 5787 5787 5788 5788 5790 5795 5801 5806 5809 5810 5810 5812 5815 5817 5820 5826 5830 5830 5832 5837 5841 5846 5851 5852 5853 5855 5856 5858 5860 5862 5864 5863 5863 5865 5867 5867 5868 5869 5872 5877 5880 5881 5883 5884 5885 5885 5886 5887 5888 5889 5891 5892 5892 5893 5893
5732 5732 5733 5735 5736 5737 5739 5740 5741 5742 5744 5747 5749 5751 5753 5754 5756 5758 5759 5758 5759 5760 5762 5765 5767 5770 5773 5775 5778 5779 5779 5780 5782 5783 5784 5785 5786 5787 5791 5796 5802 5806 5807 5807 5809 5813 5816 5817 5821 5824 5826 5830 5836 5839 5843 5847 5849 5850 5852 5853 5856 5857 5858 5859 5860 5861 5863 5865 5866 5867 5866 5868 5873 5876 5878 5880 5881 5882 5882 5883 5884 5885 5886 5888 5889 5890 5890 5890
5724 5723 5725 5728 5729 5730 5731 5733 5734 5736 5739 5741 5743 5744 5745 5747 5750 5753 5753 5753 5753 5755 5758 5761 5763 5765 5769 5771 5772 5773 5773 5774 5776 5778 5780 5782 5783 5786 5789 5791 5795 5801 5804 5805 5807 5810 5812 5813 5816 5821 5825 5828 5833 5836 5838 5841 5843 5844 5846 5849 5852 5853 5855 5857 5858 5860 5862 5863 5864 5865 5863 5864 5869 5873 5875 5876 5877 5879 5880 5881 5881 5882 5883 5885 5886 5887 5887 5887
5716 5715 5716 5719 5722 5722 5724 5726 5728 5730 5731 5733 5734 5736 5738 5741 5745 5747 5748 5748 5749 5751 5753 5756 5758 5760 5763 5765 5765 5765 5765 5768 5772 5775 5775 5776 5779 5784 5786 5788 5791 5794 5799 5802 5805 5807 5807 5808 5811 5816 5820 5822 5826 5828 5831 5834 5837 5837 5840 5844 5847 5850 5853 5855 5856 5857 5858 5859 5861 5861 5860 5862 5866 5869 5871 5873 5874 5876 5877 5878 5878 5879 5880 5881 5883 5883 5884 5883
5708 5708 5708 5710 5714 5715 5716 5718 5720 5722 5724 5725 5728 5731 5734 5736 5740 5742 5743 5743 5744 5745 5748 5752 5753 5755 5757 5758 5758 5758 5759 5762 5767 5770 5770 5772 5776 5780 5783 5785 5787 5790 5795 5800 5804 5806 5805 5806 5808 5810 5812 5814 5816 5820 5825 5830 5834 5835 5837 5840 5843 5847 5849 5851 5852 5853 5853 5855 5857 5857 5857 5860 5863 5865 5867 5869 5871 5873 5874 5874 5875 5876 5877 5878 5879 5880 5880 5880
5699 5700 5700 5702 5705 5707 5708 5710 5713 5714 5716 5719 5722 5725 5728 5730 5734 5736 5737 5738 5739 5741 5744 5748 5749 5749 5751 5752 5753 5754 5755 5758 5762 5765 5766 5770 5774 5777 5779 5781 5784 5787 5790 5795 5799 5801 5802 5803 5804 5807 5809 5812 5815 5820 5826 5831 5832 5833 5835 5838 5840 5842 5845 5847 5848 5848 5850 5852 5853 5854 5856 5858 5860 5862 5864 5866 5867 5869 5871 5871 5872 5873 5874 5875 5876 5877 5877 5877
5691 5693 5693 5693 5696 5699 5701 5703 5705 5707 5709 5712 5715 5718 5721 5724 5727 5729 5731 5732 5734 5736 5739 5743 5744 5745 5746 5748 5748 5750 5752 5755 5759 5762 5766 5769 5771 5773 5775 5779 5782 5784 5786 5789 5792 5796 5797 5798 5801 5804 5807 5812 5817 5822 5826 5828 5829 5831 5834 5835 5837 5839 5841 5842 5843 5844 5848 5849 5849 5851 5854 5855 5856 5859 5861 5863 5864 5866 5867 5868 5869 5869 5870 5871 5872 5873 5873 5874
5683 5685 5686 5686 5687 5691 5693 5695 5698 5700 5702 5705 5708 5711 5714 5717 5721 5723 5725 5727 5730 5732 5734 5737 5738 5738 5740 5742 5744 5747 5749 5752 5755 5759 5762 5767 5768 5769 5771 5775 5778 5781 5783 5785 5787 5790 5792 5794 5798 5801 5804 5809 5814 5818 5822 5824 5826 5828 5830 5832 5834 5835 5836 5838 5840 5843 5845 5845 5847 5850 5851 5851 5854 5856 5858 5860 5861 5863 5863 5864 5865 5866 5866 5867 5868 5869 5869 5870
5675 5677 5678 5678 5680 5682 5685 5687 5691 5693 5695 5698 5702 5705 5708 5712 5715 5717 5718 5721 5724 5726 5728 5731 5731 5732 5734 5736 5739 5742 5745 5748 5751 5753 5757 5762 5765 5766 5768 5771 5773 5776 5779 5780 5783 5786 5788 5790 5794 5797 5801 5805 5810 5814 5818 5820 5822 5824 5826 5828 5831 5832 5833 5835 5838 5840 5842 5842 5845 5847 5847 5848 5851 5853 5855 5857 5858 5859 5860 5860 5861 5862 5863 5864 5864 5865 5866 5867
5666 5668 5669 5671 5673 5674 5676 5679 5683 5686 5688 5691 5695 5699 5702 5706 5708 5710 5712 5715 5718 5719 5721 5724 5726 5728 5730 5732 5734 5738 5742 5744 5747 5750 5753 5758 5762 5763 5765 5768 5770 5773 5776 5778 5780 5782 5784 5788 5791 5794 5796 5799 5804 5810 5814 5816 5819 5821 5823 5825 5827 5828 5830 5832 5834 5837 5838 5839 5841 5843 5843 5845 5848 5850 5852 5853 5854 5855 5856 5857 5858 5859 5860 5861 5861 5862 5863 5864
5657 5659 5661 5663 5665 5667 5669 5671 5675 5679 5682 5684 5688 5692 5696 5699 5701 5704 5707 5709 5711 5713 5715 5719 5722 5723 5724 5727 5730 5733 5737 5741 5744 5748 5752 5754 5757 5759 5761 5764 5768 5771 5773 5776 5777 5779 5781 5784 5787 5790 5791 5793 5798 5805 5810 5814 5816 5817 5818 5820 5822 5823 5825 5828 5830 5832 5834 5836 5838 5839 5839 5842 5845 5847 5848 5849 5850 5852 5853 5854 5855 5856 5857 5858 5858 5859 5860 5860
5648 5650 5653 5655 5658 5659 5662 5664 5667 5670 5674 5678 5682 5686 5690 5692 5694 5697 5701 5702 5704 5708 5711 5714 5717 5718 5719 5723 5726 5728 5733 5737 5741 5746 5750 5751 5752 5755 5757 5761 5764 5767 5769 5771 5773 5776 5779 5780 5783 5786 5788 5790 5794 5801 5807 5811 5811 5810 5812 5815 5817 5818 5820 5823 5826 5828 5830 5832 5834 5835 5836 5840 5842 5843 5844 5846 5847 5848 5849 5850 5851 5853 5853 5854 5855 5856 5856 5856